DW8572 Weather Reports


time (UTC)temp
C
wind
direction
speed
KPH
gust
KPH
rain 1hr
cm
rain 24hr
cm
rain mn
cm
humidity
%
barometer
mb
20260504214527 24 208 0.0 0.0 0.00 0.00 0.00 48 1001.0
20260504213027 24 234 0.0 0.0 0.00 0.00 0.00 46 1001.0
20260504211528 25 235 0.0 0.0 0.00 0.00 0.00 46 1000.9
20260504210025 24 224 0.0 0.0 0.00 0.00 0.00 47 1001.0
20260504204524 24 207 0.0 0.0 0.00 0.00 0.00 48 1001.1
20260504203028 24 223 0.0 0.0 0.00 0.00 0.00 47 1001.1
20260504201519 24 220 0.0 0.0 0.00 0.00 0.00 47 1001.5
20260504200017 23 213 0.0 0.0 0.00 0.00 0.00 50 1001.8
20260504194528 23 209 0.0 0.0 0.00 0.00 0.00 49 1001.9
20260504193017 23 194 0.0 0.0 0.00 0.00 0.00 51 1001.9
20260504191513 24 216 0.0 0.0 0.00 0.00 0.00 49 1002.0
20260504190010 23 217 0.0 0.0 0.00 0.00 0.00 53 1002.1
20260504184511 23 213 0.0 0.0 0.00 0.00 0.00 52 1002.3
20260504183007 23 194 0.0 0.0 0.00 0.00 0.00 55 1002.6
20260504181503 23 199 0.0 0.0 0.00 0.00 0.00 56 1002.7
20260504180203 22 200 0.0 0.0 0.00 0.00 0.00 55 1003.0
20260504174557 22 202 0.0 0.0 0.00 0.00 0.00 55 1003.2
20260504173110 21 227 0.0 0.0 0.00 0.00 0.00 52 1003.6
20260504171553 21 172 0.0 0.0 0.00 0.00 0.00 49 1003.8
20260504120107 11 209 0.0 0.0 0.00 0.00 0.00 78 1006.2
20260504081521 7 173 0.0 0.0 0.00 0.00 0.00 84 1006.7
20260504050133 7 171 0.0 0.0 0.00 0.00 0.00 83 1009.1
20260504044558 8 171 0.0 0.0 0.00 0.00 0.00 83 1009.1
20260504043059 8 171 0.0 0.0 0.00 0.00 0.00 81 1009.2
20260504041550 8 171 0.0 0.0 0.00 0.00 0.00 81 1009.4
20260504040049 8 171 0.0 0.0 0.00 0.00 0.00 81 1009.3
20260504034552 8 171 0.0 0.0 0.00 0.00 0.00 80 1009.5
20260504033048 8 173 0.0 0.0 0.00 0.00 0.00 80 1009.6
20260504031603 8 161 0.0 0.0 0.00 0.00 0.00 81 1009.8
20260504030044 8 161 0.0 0.0 0.00 0.00 0.00 80 1010.0
20260504024543 9 155 0.0 0.0 0.00 0.00 0.00 79 1010.2
20260504023041 9 154 0.0 0.0 0.00 0.00 0.00 79 1010.3
20260504021540 9 154 0.0 0.0 0.00 0.00 0.00 79 1010.2
20260504020041 9 154 0.0 0.0 0.00 0.00 0.00 79 1010.4
20260504014539 9 155 0.0 0.0 0.00 0.00 0.00 79 1010.3
20260504013039 9 155 0.0 0.0 0.00 0.00 0.00 80 1010.3
20260504011541 9 155 0.0 0.0 0.00 0.00 0.00 79 1010.3
20260504010043 9 155 0.0 0.0 0.00 0.00 0.00 79 1010.5
20260504004536 9 156 0.0 0.0 0.00 0.00 0.00 78 1010.5
20260504003041 10 161 0.0 0.0 0.00 0.00 0.00 77 1010.7
20260504001537 10 169 0.0 0.0 0.00 0.00 0.00 76 1010.8
20260504000034 10 182 0.0 0.0 0.00 0.00 0.00 75 1010.9
20260503234534 10 181 0.0 0.0 0.00 0.00 0.00 75 1010.9
20260503233030 10 161 0.0 0.0 0.00 0.00 0.00 76 1011.1
20260503231543 10 172 0.0 0.0 0.00 0.00 0.00 77 1011.2
20260503230029 10 186 0.0 0.0 0.00 0.00 0.00 77 1011.3
20260503224526 10 190 0.0 0.0 0.00 0.00 0.00 75 1011.5
20260503223026 10 184 0.0 0.0 0.00 0.00 0.00 75 1011.8
20260503221523 10 188 0.0 0.0 0.00 0.00 0.00 74 1012.0
20260503220031 10 178 0.0 0.0 0.00 0.00 0.00 73 1012.0